TimeCDT,TemperatureF,Dew PointF,Humidity,Sea Level PressureIn,VisibilityMPH,Wind Direction,Wind SpeedMPH,Gust SpeedMPH,PrecipitationIn,Events,Conditions,WindDirDegrees,DateUTC
12:15 AM,55.4,32.0,41,29.88,10.0,SSE,9.2,-,N/A,,Clear,160,2012-10-04 05:15:00
12:35 AM,55.4,33.8,44,29.88,10.0,SSE,10.4,-,N/A,,Clear,160,2012-10-04 05:35:00
12:55 AM,55.4,33.8,44,29.87,10.0,SSE,11.5,-,N/A,,Clear,160,2012-10-04 05:55:00
1:15 AM,55.4,33.8,44,29.88,10.0,South,11.5,-,N/A,,Clear,170,2012-10-04 06:15:00
1:35 AM,57.2,35.6,44,29.87,10.0,South,11.5,-,N/A,,Clear,170,2012-10-04 06:35:00
1:55 AM,57.2,35.6,44,29.88,10.0,South,10.4,-,N/A,,Clear,190,2012-10-04 06:55:00
2:15 AM,60.8,35.6,39,29.87,10.0,South,15.0,19.6,N/A,,Clear,190,2012-10-04 07:15:00
2:35 AM,60.8,35.6,39,29.89,10.0,SW,17.3,20.7,N/A,,Clear,220,2012-10-04 07:35:00
2:55 AM,59.0,33.8,39,29.90,10.0,WSW,10.4,20.7,N/A,,Clear,240,2012-10-04 07:55:00
3:15 AM,51.8,35.6,54,29.91,10.0,West,11.5,20.7,N/A,,Clear,270,2012-10-04 08:15:00
3:35 AM,50.0,35.6,58,29.92,10.0,West,12.7,21.9,N/A,,Clear,270,2012-10-04 08:35:00
3:55 AM,50.0,35.6,58,29.93,10.0,West,8.1,-,N/A,,Clear,260,2012-10-04 08:55:00
4:15 AM,48.2,35.6,62,29.94,10.0,West,11.5,17.3,N/A,,Clear,270,2012-10-04 09:15:00
4:35 AM,48.2,35.6,62,29.94,10.0,West,8.1,-,N/A,,Clear,270,2012-10-04 09:35:00
4:55 AM,46.4,35.6,66,29.95,10.0,West,12.7,19.6,N/A,,Clear,270,2012-10-04 09:55:00
5:15 AM,46.4,35.6,66,29.97,10.0,West,12.7,18.4,N/A,,Clear,270,2012-10-04 10:15:00
5:35 AM,46.4,35.6,66,29.97,10.0,West,15.0,20.7,N/A,,Clear,270,2012-10-04 10:35:00
5:55 AM,46.4,35.6,66,29.99,10.0,West,12.7,23.0,N/A,,Mostly Cloudy,270,2012-10-04 10:55:00
6:15 AM,46.4,35.6,66,30.00,10.0,West,16.1,23.0,N/A,,Scattered Clouds,270,2012-10-04 11:15:00
6:35 AM,46.4,35.6,66,30.00,10.0,West,18.4,25.3,N/A,,Scattered Clouds,280,2012-10-04 11:35:00
6:55 AM,46.4,35.6,66,30.01,10.0,West,17.3,-,N/A,,Scattered Clouds,280,2012-10-04 11:55:00
7:15 AM,44.6,33.8,66,29.99,10.0,West,21.9,25.3,N/A,,Scattered Clouds,280,2012-10-04 12:15:00
7:35 AM,44.6,33.8,66,30.01,10.0,West,20.7,24.2,N/A,,Drizzle,280,2012-10-04 12:35:00
7:55 AM,44.6,35.6,71,30.01,10.0,West,17.3,23.0,N/A,Rain,Light Rain,270,2012-10-04 12:55:00
8:15 AM,44.6,33.8,66,30.02,10.0,WNW,16.1,23.0,N/A,,Mostly Cloudy,290,2012-10-04 13:15:00
8:35 AM,44.6,33.8,66,30.03,10.0,West,15.0,26.5,N/A,,Mostly Cloudy,280,2012-10-04 13:35:00
8:55 AM,44.6,32.0,61,30.04,10.0,WNW,19.6,25.3,N/A,,Scattered Clouds,290,2012-10-04 13:55:00
9:15 AM,44.6,32.0,61,30.05,10.0,WNW,19.6,28.8,N/A,,Mostly Cloudy,290,2012-10-04 14:15:00
9:35 AM,44.6,32.0,61,30.05,10.0,WNW,21.9,28.8,N/A,,Scattered Clouds,300,2012-10-04 14:35:00
9:55 AM,44.6,32.0,61,30.06,10.0,WNW,27.6,34.5,N/A,,Scattered Clouds,290,2012-10-04 14:55:00
10:15 AM,46.4,32.0,57,30.06,10.0,WNW,26.5,32.2,N/A,,Scattered Clouds,290,2012-10-04 15:15:00
10:35 AM,46.4,32.0,57,30.07,10.0,WNW,21.9,36.8,N/A,,Scattered Clouds,300,2012-10-04 15:35:00
10:55 AM,48.2,32.0,54,30.09,10.0,WNW,19.6,27.6,N/A,,Scattered Clouds,290,2012-10-04 15:55:00
11:15 AM,48.2,30.2,50,30.09,10.0,NW,20.7,32.2,N/A,,Mostly Cloudy,310,2012-10-04 16:15:00
11:35 AM,50.0,30.2,47,30.09,10.0,WNW,24.2,31.1,N/A,,Mostly Cloudy,290,2012-10-04 16:35:00
11:55 AM,50.0,30.2,47,30.10,10.0,NW,23.0,29.9,N/A,,Mostly Cloudy,320,2012-10-04 16:55:00
12:15 PM,50.0,30.2,47,30.11,10.0,WNW,23.0,28.8,N/A,,Mostly Cloudy,290,2012-10-04 17:15:00
12:35 PM,50.0,30.2,47,30.12,10.0,West,20.7,28.8,N/A,,Mostly Cloudy,280,2012-10-04 17:35:00
12:55 PM,50.0,30.2,47,30.12,10.0,WNW,25.3,32.2,N/A,,Mostly Cloudy,300,2012-10-04 17:55:00
1:15 PM,51.8,28.4,41,30.13,10.0,WNW,20.7,26.5,N/A,,Mostly Cloudy,290,2012-10-04 18:15:00
1:35 PM,51.8,28.4,41,30.13,10.0,WNW,23.0,31.1,N/A,,Mostly Cloudy,290,2012-10-04 18:35:00
1:55 PM,50.0,28.4,43,30.13,10.0,WNW,20.7,26.5,N/A,,Mostly Cloudy,290,2012-10-04 18:55:00
2:15 PM,51.8,28.4,41,30.13,10.0,NW,17.3,28.8,N/A,,Mostly Cloudy,310,2012-10-04 19:15:00
2:35 PM,51.8,28.4,41,30.13,10.0,WNW,20.7,26.5,N/A,,Mostly Cloudy,290,2012-10-04 19:35:00
2:55 PM,51.8,28.4,41,30.14,10.0,WNW,20.7,28.8,N/A,,Scattered Clouds,300,2012-10-04 19:55:00
3:15 PM,53.6,26.6,35,30.13,10.0,WNW,20.7,26.5,N/A,,Mostly Cloudy,290,2012-10-04 20:15:00
3:35 PM,51.8,26.6,38,30.13,10.0,WNW,20.7,29.9,N/A,,Scattered Clouds,300,2012-10-04 20:35:00
4:15 PM,51.8,26.6,38,30.15,10.0,WNW,17.3,23.0,N/A,,Mostly Cloudy,300,2012-10-04 21:15:00
4:35 PM,51.8,26.6,38,30.15,10.0,WNW,18.4,25.3,N/A,,Scattered Clouds,300,2012-10-04 21:35:00
4:55 PM,51.8,26.6,38,30.15,10.0,NW,13.8,27.6,N/A,,Scattered Clouds,320,2012-10-04 21:55:00
5:15 PM,51.8,26.6,38,30.16,10.0,NW,17.3,26.5,N/A,,Scattered Clouds,310,2012-10-04 22:15:00
5:35 PM,50.0,26.6,40,30.16,10.0,NW,18.4,25.3,N/A,,Clear,310,2012-10-04 22:35:00
5:55 PM,48.2,26.6,43,30.16,10.0,NW,16.1,25.3,N/A,,Clear,310,2012-10-04 22:55:00
6:15 PM,46.4,26.6,46,30.17,10.0,NW,16.1,25.3,N/A,,Clear,310,2012-10-04 23:15:00
6:35 PM,46.4,26.6,46,30.18,10.0,NW,16.1,24.2,N/A,,Clear,310,2012-10-04 23:35:00
6:55 PM,44.6,26.6,49,30.18,10.0,NW,13.8,19.6,N/A,,Clear,310,2012-10-04 23:55:00
7:15 PM,44.6,26.6,49,30.19,10.0,NW,10.4,-,N/A,,Clear,310,2012-10-05 00:15:00
7:35 PM,44.6,26.6,49,30.20,10.0,NW,11.5,16.1,N/A,,Clear,310,2012-10-05 00:35:00
7:55 PM,42.8,26.6,53,30.21,10.0,NW,11.5,16.1,N/A,,Clear,310,2012-10-05 00:55:00
8:15 PM,42.8,26.6,53,30.20,10.0,NW,9.2,-,N/A,,Scattered Clouds,320,2012-10-05 01:15:00
8:35 PM,42.8,26.6,53,30.20,10.0,NW,11.5,16.1,N/A,,Scattered Clouds,310,2012-10-05 01:35:00
9:15 PM,42.8,26.6,53,30.21,10.0,NW,10.4,-,N/A,,Overcast,310,2012-10-05 02:15:00
9:35 PM,42.8,26.6,53,30.20,10.0,NNW,12.7,17.3,N/A,,Mostly Cloudy,330,2012-10-05 02:35:00
9:55 PM,42.8,26.6,53,30.20,10.0,NW,10.4,-,N/A,,Clear,320,2012-10-05 02:55:00
10:15 PM,41.0,26.6,57,30.21,10.0,NW,11.5,17.3,N/A,,Clear,310,2012-10-05 03:15:00
10:35 PM,41.0,26.6,57,30.21,10.0,WNW,9.2,-,N/A,,Mostly Cloudy,300,2012-10-05 03:35:00
10:55 PM,41.0,26.6,57,30.21,10.0,NW,11.5,18.4,N/A,,Overcast,310,2012-10-05 03:55:00
11:15 PM,41.0,26.6,57,30.21,10.0,WNW,9.2,-,N/A,,Scattered Clouds,300,2012-10-05 04:15:00
11:35 PM,37.4,26.6,65,30.21,10.0,West,6.9,-,N/A,,Mostly Cloudy,280,2012-10-05 04:35:00
11:55 PM,41.0,26.6,57,30.22,10.0,WNW,6.9,-,N/A,,Overcast,290,2012-10-05 04:55:00